Regional Weather Roundup
Issued by NWS

Home | Current Version | Previous Version | Text Only | Print | Product List | Glossary On
Versions: 1 2 3 4 5 6 7 8 9 10 11 12 13 14 15 16 17 18 19 20 21 22 23 24 25 26 27 28 29 30 31 32 33 34 35 36 37 38 39 40 41 42 43 44 45 46 47 48 49 50
810
ASUS44 KLIX 270601
RWRLA
LOUISIANA WEATHER ROUNDUP
NATIONAL WEATHER SERVICE NEW ORLEANS LA
1200 AM CST FRI FEB 27 2015

NOTE: "FAIR" INDICATES FEW OR NO CLOUDS BELOW 12,000 FEET WITH NO
      SIGNIFICANT WEATHER AND/OR OBSTRUCTIONS TO VISIBILITY.
      SKY/WX - SKY CONDITION AND SIGNIFICANT WEATHER.
      TMP - AIR TEMPERATURE.    DP   - DEWPOINT TEMPERATURE.
      RH  - RELATIVE HUMIDITY.  PRES - PRESSURE.
      HX  - HEAT INDEX.         WCI  - WIND CHILL INDEX.

*  THESE STATIONS ARE NOT NWS OR FAA STATIONS AND ARE NOT UNDER
   NWS QUALITY CONTROL.

LAZ040-048-061>063-065-066-069-270700-
SOUTHEAST LOUISIANA

CITY           SKY/WX    TMP DP  RH WIND       PRES   REMARKS
N.O. AUDUBON     N/A     42  36  79 MISG        N/A
6HR MIN TEMP:  42; 6HR MAX TEMP:  49;

N.O. INTL ARPT PTCLDY    41  34  76 N16       30.27R
6HR MIN TEMP:  41; 6HR MAX TEMP:  48;

N.O. LAKEFRONT PTCLDY    43  34  70 N22       30.28R
6HR MIN TEMP:  43; 6HR MAX TEMP:  50;

SLIDELL        PTCLDY    37  31  78 N13       30.27R WCI  29
6HR MIN TEMP:  37; 6HR MAX TEMP:  46;

BATON ROUGE    MOCLDY    37  31  78 N8G18     30.31R WCI  31
6HR MIN TEMP:  36; 6HR MAX TEMP:  48;

BOOTHVILLE     CLOUDY    48  36  63 N12G18    30.23S
6HR MIN TEMP:  47; 6HR MAX TEMP:  49;

BELLE CHASSE   MOCLDY    43  32  65 N10G18    30.25R
6HR MIN TEMP:  43; 6HR MAX TEMP:  48;

BOGALUSA*        N/A     37  31  80 N13G20    30.31S WCI  29
6HR MIN TEMP:  36; 6HR MAX TEMP:  47;

GALLIANO*      CLOUDY    46  36  66 N9        30.25R
6HR MIN TEMP:  46; 6HR MAX TEMP:  48;

NEW ROADS*     NOT AVBL
GONZALES*      NOT AVBL
HAMMOND*       NOT AVBL
HOUMA*         MOCLDY    41  35  79 N13       30.26R
6HR MIN TEMP:  41; 6HR MAX TEMP:  47;

PORT FOURCHON* NOT AVBL

$$

LAZ041-044-053-054-270700-
SOUTHWEST LOUISIANA

CITY           SKY/WX    TMP DP  RH WIND       PRES   REMARKS
LAKE CHARLES   CLOUDY    42  35  76 N10       30.31R
6HR MIN TEMP:  41; 6HR MAX TEMP:  52;

LAFAYETTE      CLOUDY    37  31  78 N16       30.31R WCI  28
6HR MIN TEMP:  37; 6HR MAX TEMP:  46;

PATTERSON      CLEAR     39  32  75 N14       30.28S WCI  31
6HR MIN TEMP:  39; 6HR MAX TEMP:  48;

SALT POINT       N/A     39  34  82 VRB6      30.27R WCI  35
6HR MIN TEMP:  39; 6HR MAX TEMP:  49;

NEW IBERIA     PTCLDY    38  32  79 N12       30.31R WCI  30
6HR MIN TEMP:  37; 6HR MAX TEMP:  47;

CHENAULT AIRPK CLOUDY    41  34  76 NE13G18   30.32R
6HR MIN TEMP:  39; 6HR MAX TEMP:  51;


$$

LAZ027-028-270700-
CENTRAL LOUISIANA

CITY           SKY/WX    TMP DP  RH WIND       PRES   REMARKS
FORT POLK      NOT AVBL
ALEXANDRIA INT CLOUDY    37  31  78 NE10      30.36R WCI  30
6HR MIN TEMP:  37; 6HR MAX TEMP:  44;

ALEXANDRIA     CLOUDY    38  29  70 VRB3      30.37R
6HR MIN TEMP:  38; 6HR MAX TEMP:  44;


$$

LAZ001-002-270700-
NORTHWEST LOUISIANA

CITY           SKY/WX    TMP DP  RH WIND       PRES   REMARKS
SHREVEPORT     CLOUDY    35  30  82 N8        30.40R WCI  29
6HR MIN TEMP:  33; 6HR MAX TEMP:  38;

BARKSDALE AFB  NOT AVBL
DTN SHREVEPORT CLOUDY    33  29  85 CALM      30.42R
6HR MIN TEMP:  31; 6HR MAX TEMP:  37;


$$

LAZ014-016-270700-
NORTHEAST LOUISIANA

CITY           SKY/WX    TMP DP  RH WIND       PRES   REMARKS
MONROE         CLEAR     31  28  89 N7        30.41R WCI  24
6HR MIN TEMP:  31; 6HR MAX TEMP:  37;

TALLULAH       CLOUDY    33  28  81 N10       30.38R WCI  25
6HR MIN TEMP:  33; 6HR MAX TEMP:  36;


$$




USA.gov is the U.S. government's official web portal to all federal, state and local government web resources and services.